Погода в Пудожгорском

Россия / Республика Карелия     62°19′01″N   35°55′51″E
темп.,
°C
ветер,
м/с
пор.,
м/с
влажн.,
%
обл.,
%
осадки,
мм/ч
давл.,
гПа
погр.,
м
19 сентября, вс
вс1900:00+6всв2262100 0.0 1031148
03:00+5всв1164100 0.0 1031104
06:00+5всв2371100 0.0 1031146
09:00+6всв246594 0.0 1031461
12:00+8всв345076 0.0 10321568
15:00+8всв4553100 0.0 10321571
18:00+7всв3657100 0.0 1031482
21:00+5всв39735 0.0 1032458
20 сентября, пн
пн2000:00+4всв2670100 0.0 1033190
03:00+5всв3763100 0.0 1033397
06:00+5всв376874 0.0 1033375
09:00+5в48675 0.0 1034876
12:00+7в5755100 0.0 10341435
15:00+6в4758100 0.0 10331431
18:00+6в4760100 0.0 1032936
21:00+5в3765100 0.0 1032534
21 сентября, вт
вт2100:00+3в377463 0.0 1032256
03:00+1в378966 0.0 1031195
06:00+1в3889100 0.0 1030250
09:00+3в487361 0.0 1029398
12:00+7в455647 0.0 1028930
15:00+9в345161 0.0 10261194
18:00+6всв2568100 0.0 1025148
21:00+3в3682100 0.0 1026122
22 сентября, ср
ср2200:00+3в268874 0.0 1026122
03:00+1в36948 0.0 1025121
06:00+1в37959 0.0 1025156
09:00+5в36755 0.0 1025305
12:00+9в35575 0.0 1024763
15:00+10в23515 0.0 10231068
18:00+7в25705 0.0 1022117
21:00+4вюв36845 0.0 1021115
23 сентября, чт
чт2300:00+3вюв37890 0.0 1020143
03:00+2вюв37922 0.0 1018155
06:00+2вюв38905 0.0 1016172
09:00+5вюв377121 0.0 1014291
12:00+8юв4767100 0.0 1011525
15:00+6юв4887100 0.1 1010581
18:00+5юв41094100 0.3 1008504
21:00+6юв41195100 0.3 1006523